This is the latest recevied weather packets stored in our database for station/object K0QJ. If no packets are shown the sender has not sent any weather packets the latest 1 day(s).
| Time | Temp. | Humidity | Pressure | Rain* | Wind** | Luminosity | Snow |
|---|---|---|---|---|---|---|---|
| 1778030717 | 10° C | 88% | 1011 hPa | 0 mm | 0 m/s | 0 W/m² | - |
| 1778030414 | 10° C | 87% | 1010.8 hPa | 0 mm | 0 m/s | 0 W/m² | - |
| 1778030112 | 10.56° C | 87% | 1010.8 hPa | 0 mm | 0 m/s | 0 W/m² | - |
| 1778029808 | 10.56° C | 87% | 1011.1 hPa | 0 mm | 0 m/s | 2 W/m² | - |
| 1778029508 | 10.56° C | 86% | 1011 hPa | 0 mm | 0 m/s | 3 W/m² | - |
| 1778029204 | 10.56° C | 86% | 1010.7 hPa | 0 mm | 0 m/s | 6 W/m² | - |
| 1778028901 | 10.56° C | 86% | 1010.8 hPa | 0 mm | 0 m/s | 10 W/m² | - |
| 1778028596 | 10.56° C | 86% | 1011 hPa | 0 mm | 0 m/s | 9 W/m² | - |
| 1778028294 | 10.56° C | 85% | 1010.6 hPa | 0 mm | 0 m/s | 11 W/m² | - |
| 1778027990 | 10.56° C | 85% | 1010.7 hPa | 0 mm | 0 m/s | 10 W/m² | - |
| 1778027687 | 11.11° C | 85% | 1010.7 hPa | 0 mm | 0 m/s | 10 W/m² | - |
| 1778027383 | 10.56° C | 85% | 1011 hPa | 0 mm | 0 m/s | 11 W/m² | - |
| 1778027079 | 11.11° C | 84% | 1010.9 hPa | 0 mm | 0 m/s | 16 W/m² | - |
| 1778026774 | 10.56° C | 84% | 1010.6 hPa | 0 mm | 0 m/s | 18 W/m² | - |
| 1778026472 | 10.56° C | 84% | 1010.3 hPa | 0 mm | 0 m/s | 26 W/m² | - |
| 1778026169 | 11.11° C | 84% | 1010.1 hPa | 0 mm | 0 m/s | 29 W/m² | - |
| 1778025867 | 11.11° C | 84% | 1010.5 hPa | 0 mm | 0 m/s | 32 W/m² | - |
| 1778025563 | 11.11° C | 83% | 1010.4 hPa | 0 mm | 0 m/s | 23 W/m² | - |
| 1778025262 | 11.11° C | 83% | 1010.4 hPa | 0 mm | 0 m/s | 32 W/m² | - |
| 1778024958 | 11.11° C | 83% | 1010.3 hPa | 0 mm | 0.45 m/s, 325° | 52 W/m² | - |
| 1778024656 | 11.11° C | 83% | 1010.3 hPa | 0 mm | 0 m/s | 74 W/m² | - |
| 1778024352 | 11.11° C | 83% | 1010.6 hPa | 0 mm | 0 m/s | 56 W/m² | - |
| 1778024050 | 11.11° C | 84% | 1010.5 hPa | 0 mm | 0 m/s | 58 W/m² | - |
| 1778023747 | 11.11° C | 84% | 1010.4 hPa | 0 mm | 0 m/s | 67 W/m² | - |
| 1778023445 | 11.11° C | 84% | 1010.3 hPa | 0 mm | 0 m/s | 72 W/m² | - |
* Rain latest hour (hover to see other rain measurements)
** Current wind speed in m/s (hover to see current wind gust speed)